Regional Weather Roundup
Issued by NWS

Home | Current Version | Previous Version | Graphics & Text | Print | Product List | Glossary On
Versions: 1 2 3 4 5 6 7 8 9 10 11 12 13 14 15 16 17 18 19 20 21 22 23 24 25 26 27 28 29 30 31 32 33 34 35 36 37 38 39 40 41 42 43 44 45 46 47 48 49 50
000
ASUS45 KTFX 230204
RWRMT
MONTANA HOURLY WEATHER ROUNDUP
NATIONAL WEATHER SERVICE GREAT FALLS MT
704 PM MST MON DEC 22 2014

NOTE: "FAIR" INDICATES FEW OR NO CLOUDS BELOW 12000 FEET WITH NO
SIGNIFICANT WEATHER AND/OR OBSTRUCTIONS TO VISIBILITY.

* THESE STATIONS ARE NOT UNDER NWS QUALITY CONTROL. THEY DO NOT
   REPORT WEATHER SUCH AS PRECIPITATION OR FOG.

MTZ001>007-043-230300-
WEST OF THE DIVIDE
CITY           SKY/WX    TMP DP  RH WIND       PRES   REMARKS
KALISPELL      MOCLDY    27  25  92 NE5       30.16R WCI  21
MISSOULA       CLOUDY    36  25  64 NW9       30.20R WCI  29
BUTTE          CLOUDY    27  18  69 W5        30.11R WCI  21
MULLAN PASS    CLOUDY    25  21  85 VRB5      30.16R WCI  19
* ESSEX        N/A       31  29  92 N/A        N/A
* LINCOLN      N/A       30  23  75 W4G9       N/A
* LOOKOUT PASS N/A       30  25  82 NE6        N/A   WCI  24
* POLSON       N/A       32  22  67 W3         N/A
* RONAN APT    PTCLDY    36  27  70 N/A        N/A
* SEELEY LAKE  N/A       26  25  96 S2G7       N/A
* THOMP F APT  CLEAR     24  14  66 N6G18      N/A   WCI  17
* YAAK HILL    N/A       34  24  67 N5         N/A   WCI  29
$$

MTZ008-052>055-230300-
SOUTHWEST MONTANA
CITY           SKY/WX    TMP DP  RH WIND       PRES   REMARKS
BOZEMAN        MOCLDY    30  25  82 CALM      30.10R
DILLON         PTCLDY    27  18  69 NW6       30.10R WCI  20
* W YELLOWSTON PTCLDY    13  10  88 SE1        N/A
* THREE FORKS  PTCLDY    34  27  76 N/A        N/A
* BOULDER HILL N/A       29  10  45 NE6G15     N/A   WCI  23
* MONIDA PASS  N/A       22  13  68 NW24G29    N/A   WCI   6
* RAYNOLDS PAS N/A       21  19  92 VRB9G20    N/A   WCI  11
* WHITEHALL    N/A       30  19  64 SW2G7      N/A
* WISE RIVER   N/A       25  17  72 W5G14      N/A   WCI  19
$$

MTZ009>010-012-014-046-048-049-054-230300-
EAST SLOPES AND CENTRAL MONTANA
CITY           SKY/WX    TMP DP  RH WIND       PRES   REMARKS
CUT BANK       PTCLDY    28  21  75 W12       30.07R WCI  18
GREAT FALLS    CLOUDY    32  25  75 W6        30.08R WCI  26
HELENA         CLOUDY    36  21  54 W12       30.10R WCI  28
MALMSTROM AFB  MOCLDY    34  27  76 W6        30.10R WCI  29
* DEARBORN     N/A       38  23  55 S1G8       N/A
* EAST GLACIER N/A       29  19  66 W6         N/A   WCI  23
* MONARCH      N/A       26  22  85 NW13       N/A   WCI  15
* PENDROY      N/A       29  20  69 NW11G16    N/A   WCI  19
* ROGERS PASS  N/A       27  22  81 S1G12      N/A
* SWEET GRASS  N/A       30  23  75 W10        N/A   WCI  21
$$

MTZ011-013-016-021-035-040-045-047-050-051-230300-
NORTH CENTRAL MONTANA
CITY           SKY/WX    TMP DP  RH WIND       PRES   REMARKS
HAVRE          PTCLDY    30  25  82 SW13      30.05R WCI  20
LEWISTOWN      CLOUDY    32  23  69 NW8       30.03R WCI  25
* N BAR RANCH  CLOUDY    32  21  64 NW25G36   29.97R WCI  19
* CHESTER      N/A       32  23  69 NW9G14     N/A   WCI  24
* DENTON       N/A       32  23  69 NW12G17    N/A   WCI  23
* GEYSER       N/A       31  25  78 W11        N/A   WCI  22
* JUDITH GAP   N/A       29  23  78 NW23G30    N/A   WCI  15
* LOMA         N/A       35  27  73 W6G11      N/A   WCI  30
$$

MTZ017>020-022>027-061-062-230300-
NORTHEAST MONTANA
CITY           SKY/WX    TMP DP  RH WIND       PRES   REMARKS
GLASGOW        CLOUDY    28  21  75 NW15      29.93R WCI  16
GLENDIVE       CLOUDY    25  19  78 NW21      29.87R WCI  10
JORDAN         PTCLDY    36  27  70 NW25G33   29.92R WCI  24
SIDNEY         CLOUDY    25  21  85 NW15G21   29.88R WCI  13
WOLF POINT     CLOUDY    27  19  72 NW6       29.93R WCI  20
* BEAVER HILL  N/A       22  19  88 NW21       N/A   WCI   7
* CIRCLE       N/A       27  24  88 NW7G16     N/A   WCI  19
* LINDSAY DVD  N/A       21  20  96 NW24G33    N/A   WCI   4
* NAVAJO       N/A       22  19  88 N17G22     N/A   WCI   8
* SACO         N/A       33  27  79 NW20G28    N/A   WCI  21
$$

MTZ028>042-056>058-230300-
SOUTHCENTRAL AND SOUTHEAST MONTANA
CITY           SKY/WX    TMP DP  RH WIND       PRES   REMARKS
BAKER          LGT SNOW  23  21  92 NW17G28   29.81R VSB 2    WCI   9
BILLINGS       PTCLDY    34  21  59 NW14      30.00R WCI  24
LIVINGSTON     MOCLDY    28  25  89 W6        30.05R WCI  21
MILES CITY     CLOUDY    34  27  76 N18G25    29.89R WCI  23
* LAUREL APT   PTCLDY    36  16  44 W17        N/A   WCI  26
* ROUNDUP APT  PTCLDY    34  19  54 W11G16     N/A   WCI  26
* ALZADA       N/A       30  26  85 W21G28     N/A   WCI  17
* HYSHAM       N/A       35  20  54 NW9G16     N/A   WCI  28
* REED POINT   N/A       35  23  62 W8         N/A   WCI  28
* ROSCOE HILL  N/A       30  15  54 W4G12      N/A
$$

REGIONAL REPORTS...DAKOTAS
CITY           SKY/WX    TMP DP  RH WIND       PRES   REMARKS
WILLISTON      CLOUDY    27  23  85 N17       29.84R WCI  14
DICKINSON      LGT SNOW  25  19  78 NW20      29.73R WCI  11
BEACH          LGT SNOW  23  23 100 NW23      29.82R WCI   7
CROSBY         CLOUDY    25  25 100 N/A       29.85R
WATFORD CITY   FOG       25  25 100 NW15      29.80R WCI  13
BISMARCK       LGT SNOW  30  28  92 N16       29.69R WCI  19
GRAND FORKS    FOG       36  36 100 NE6       29.68R WCI  31
FARGO          LGT RAIN  37  34  89 E9        29.64R WCI  30
BUFFALO SD     MOCLDY    25  19  78 NW30G40   29.66R WCI   8
RAPID CITY     LGT SNOW  30  28  92 N24G38    29.65R VSB 3/4  WCI  16
$$

REGIONAL REPORTS...WYOMING/IDAHO/WASHINGTON
CITY           SKY/WX    TMP DP  RH WIND       PRES   REMARKS
GILLETTE       CLOUDY    34  21  59 NW29G39   29.79R WCI  20
SHERIDAN       CLOUDY    36  21  54 NW25G38   29.92R WCI  24
CODY           CLOUDY    30  21  69 N8        29.98R WCI  22
YELLOWSTONE LA PTCLDY    18  14  84 NW3       30.00R
SALMON         CLOUDY    34  19  54 CALM      30.20R
MULLAN PASS    CLOUDY    25  21  85 VRB5      30.16S WCI  19
SAND POINT     CLEAR     32  28  85 CALM      30.24R
SPOKANE        PTCLDY    36  28  73 SW9       30.26R WCI  29
$$

REGIONAL REPORTS...SASKATCHEWAN
CITY           SKY/WX    TMP DP  RH WIND       PRES   REMARKS
SWIFT CURRENT  LGT SNOW  21  21 100 NW13      29.94R WCI   8

$$




USA.gov is the U.S. government's official web portal to all federal, state and local government web resources and services.